[[{"header":{"parameterUnit":"m.s-1","parameterCategory":1,"la1":30.2991,"la2":30.254,"lo1":-89.0895,"lo2":-89.0444,"dy":0.0017,"dx":0.0017,"nx":28,"ny":28,"refTime":"2023-10-28T21:00:00:Z","depth":0,"parameterNumber":2,"parameterNumberName":"U-component_of_WINDS"},"data":[0,0,0,0,0,0,0,0,0,0,0,0,0,0,0,0,0,0,0,0,0,0,0,0,0,0,0,0,0,0,0,0,0,0,0,0,0,0,0,0,0,0,0,0,0,0,0,0,0,0,0,0,0,0,0,0,0,0,-2.8216,-2.8217,0,-2.8294,-2.8295,-2.8295,-2.8269,-2.8267,-2.8266,-2.8264,-2.8343,-2.8346,-2.835,0,0,0,0,0,0,0,0,0,0,0,0,0,-2.8048,-2.8052,-2.8216,-2.8217,-2.8218,-2.8293,-2.8295,-2.8296,-2.8269,-2.8267,-2.8265,-2.8263,-2.8341,-2.8346,-2.835,0,0,0,0,0,0,0,0,0,0,0,0,0,-2.8123,-2.8053,-2.8216,-2.8214,-2.8215,-2.8293,-2.8295,-2.8296,-2.827,-2.8267,-2.8265,-2.8262,-2.834,-2.8345,-2.8351,-2.8435,0,0,-2.8368,-2.837,0,0,0,0,0,0,0,0,-2.8119,-2.8129,-2.8214,-2.8215,-2.8215,-2.8269,-2.8264,-2.8343,-2.8271,-2.8249,-2.8264,-2.8261,-2.832,-2.8327,-2.8347,-2.8439,-2.8442,-2.8368,-2.8371,-2.8374,-2.8375,0,0,0,0,0,0,0,-2.8114,-2.8126,-2.8247,-2.8215,-2.8216,-2.821,-2.8218,-2.8279,-2.8298,-2.8251,-2.8249,-2.8259,-2.832,-2.8342,-2.8349,-2.8443,-2.8368,-2.8373,-2.8376,-2.8378,-2.8612,-2.8615,0,0,0,0,0,0,-2.8108,-2.8122,-2.8244,-2.8249,-2.816,-2.8215,-2.8224,-2.8254,-2.8297,-2.8301,-2.8261,-2.8257,-2.8334,-2.8342,-2.8351,-2.8455,-2.8374,-2.8379,-2.8382,-2.8609,-2.8613,-2.8616,0,0,0,0,0,0,-2.8104,-2.8119,-2.8241,-2.8185,-2.82,-2.8221,-2.8255,-2.8257,-2.8279,-2.8305,-2.8308,-2.8279,-2.8332,-2.8344,-2.8415,-2.8457,-2.8381,-2.8386,-2.8606,-2.861,-2.8615,-2.8661,0,0,0,0,0,0,-2.81,-2.8118,-2.8149,-2.8186,-2.8203,-2.8303,-2.8258,-2.8261,-2.8289,-2.8285,-2.8323,-2.8327,-2.8331,-2.8407,-2.8421,-2.8463,-2.8391,-2.8602,-2.8608,-2.8613,-2.8656,-2.8667,-2.8676,0,0,0,0,0,-2.8094,-2.8159,-2.8151,-2.8166,-2.8243,-2.8306,-2.8316,-2.8319,-2.8292,-2.8324,-2.8342,-2.8326,-2.8451,-2.8415,-2.843,-2.8475,-2.86,-2.8606,-2.8613,-2.8652,-2.8665,-2.8676,0,0,0,0,0,0,-2.8125,-2.8163,-2.8155,-2.8234,-2.8267,-2.8301,-2.8342,-2.8333,-2.8374,-2.8368,-2.8371,-2.838,-2.8454,-2.8472,-2.8431,-2.8561,-2.8521,-2.8531,-2.8546,-2.8559,-2.8568,-2.8562,-2.8395,0,0,0,0,0,-2.8142,-2.8189,-2.822,-2.8286,-2.8304,-2.832,-2.8348,-2.8348,-2.8382,-2.8396,-2.8418,-2.8452,-2.8499,-2.853,-2.8575,-2.866,-2.8669,-2.8698,-2.8708,-2.8716,-2.8724,-2.8773,-2.8787,-2.8638,-2.8638,-2.8638,0,0,-2.8175,-2.8202,-2.8231,-2.8294,-2.8319,-2.8369,-2.8332,-2.8385,-2.8423,-2.8404,-2.8473,-2.8491,-2.853,-2.8609,-2.8645,-2.8626,-2.8768,-2.8725,-2.8731,-2.8734,-2.8781,-2.8795,-2.8808,-2.8642,-2.8641,-2.8641,0,0,-2.8262,-2.8287,-2.8346,-2.8373,-2.8413,-2.8424,-2.8439,-2.8476,-2.8487,-2.8557,-2.8545,-2.859,-2.8671,-2.87,-2.8725,-2.8828,-2.8815,-2.8843,-2.8893,-2.8941,-2.8953,-2.8963,-2.9001,-2.9014,-2.8851,-2.8851,-2.8851,0,-2.8298,-2.8372,-2.8377,-2.8433,-2.8461,-2.8449,-2.851,-2.8536,-2.8588,-2.8609,-2.8587,-2.8691,-2.8716,-2.8803,-2.8828,-2.8849,-2.8866,-2.8837,-2.8951,-2.8961,-2.8971,-2.9007,-2.9021,-2.8854,-2.8854,-2.8853,-2.8853,0,-2.8416,-2.8468,-2.8511,-2.8564,-2.8598,-2.8655,-2.867,-2.8704,-2.8703,-2.8717,-2.8791,-2.8821,-2.8873,-2.8894,-2.8892,-2.8982,-2.8969,-2.8949,-2.891,-2.8988,-2.9022,-2.9036,-2.8858,-2.8857,-2.8856,-2.8856,0,0,-2.8521,-2.8578,-2.8594,-2.8619,-2.8664,-2.8705,-2.8764,-2.8816,-2.8846,-2.8884,-2.8934,-2.9005,-2.8988,-2.9017,-2.9019,-2.9061,-2.9143,-2.9037,-2.9038,-2.9056,-2.9246,-2.926,-2.9276,-2.9136,-2.9139,-2.9141,-2.9243,0,-2.8611,-2.8714,-2.8722,-2.8816,-2.8865,-2.8856,-2.8908,-2.8942,-2.8958,-2.9003,-2.9021,-2.9072,-2.9045,-2.9063,-2.9104,-2.9124,-2.9181,-2.9117,-2.9183,-2.9186,-2.9173,-2.9293,-2.9308,-2.9402,-2.9256,-2.9258,-2.926,0,-2.8729,-2.8773,-2.8871,-2.8913,-2.8934,-2.898,-2.903,-2.9073,-2.9113,-2.9122,-2.9157,-2.9155,-2.9217,-2.9177,-2.9264,-2.922,-2.9249,-2.9263,-2.9267,-2.9273,-2.9226,-2.9302,-2.9432,-2.9446,-2.9281,-2.9279,-2.9277,0,-2.8797,-2.888,-2.895,-2.8972,-2.9022,-2.9055,-2.9077,-2.9115,-2.9147,-2.9191,-2.9212,-2.9263,-2.9291,-2.9331,-2.9344,-2.9313,-2.9431,-2.9391,-2.9441,-2.9441,-2.9465,-2.9463,-2.9601,-2.9484,-2.9484,-2.9484,-2.9483,0,-2.8897,-2.8957,-2.8982,-2.9025,-2.9094,-2.9104,-2.9172,-2.9193,-2.9227,-2.9275,-2.9271,-2.9316,-2.9331,-2.9379,-2.939,-2.9462,-2.9474,-2.9484,-2.9486,-2.9484,-2.9483,-2.9502,-2.9495,-2.9487,-2.9487,-2.9486,-2.9485,0,-2.8982,-2.9001,-2.9077,-2.912,-2.9132,-2.9181,-2.9218,-2.926,-2.9277,-2.9339,-2.9354,-2.9381,-2.9438,-2.9455,-2.9524,-2.9532,-2.9616,-2.9612,-2.9602,-2.9602,-2.9651,-2.9647,-2.9806,-2.9828,-2.9696,-2.9698,-2.9699,0,-2.9044,-2.9091,-2.914,-2.9172,-2.9196,-2.9248,-2.9281,-2.9294,-2.9329,-2.9381,-2.9418,-2.9475,-2.9521,-2.9614,-2.964,-2.9694,-2.9691,-2.9744,-2.9699,-2.9697,-2.9693,-2.969,-2.9695,-2.9751,-2.9753,-2.9754,-2.9755,0,-2.9152,-2.916,-2.9208,-2.9261,-2.9301,-2.9343,-2.9383,-2.941,-2.943,-2.947,-2.9529,-2.9565,-2.9637,-2.9694,-2.975,-2.9774,-2.9769,-2.9769,-2.9784,-2.9782,-2.9775,-2.978,-2.9625,-2.9765,-2.9764,-2.9763,-2.9763,-2.9762,-2.9228,-2.927,-2.9312,-2.9367,-2.9399,-2.9438,-2.9481,-2.9505,-2.9554,-2.9614,-2.962,-2.9684,-2.9727,-2.9801,-2.9829,-2.988,-2.9865,-2.9886,-2.9891,-2.9896,-2.9901,-2.9767,-2.9891,-2.989,-2.989,-2.989,-2.989,0,-2.9336,-2.9364,-2.9414,-2.9472,-2.9516,-2.9508,-2.9554,-2.9591,-2.9648,-2.9688,-2.9735,-2.9805,-2.9862,-2.9894,-2.9952,-2.9987,-2.9986,-3.0002,-2.9999,-3.0005,-2.991,-2.9892,-3.0002,-3.0002,-3.0002,-3.0002,-3.0002,-3.0002,-2.9398,-2.947,-2.9483,-2.9573,-2.96,-2.9663,-2.969,-2.9727,-2.976,-2.9838,-2.9886,-2.9907,-2.9945,-3.0006,-3.0059,-3.0067,-3.0089,-3.0106,-3.0113,-3.0023,-3.0011,-3.0,-2.9984,-3.0111,-3.0111,-3.0204,-3.0204,-3.0205]},{"header":{"parameterUnit":"m.s-1","parameterCategory":1,"la1":30.2991,"la2":30.254,"lo1":-89.0895,"lo2":-89.0444,"dy":0.0017,"dx":0.0017,"nx":28,"ny":28,"refTime":"2023-10-28T21:00:00:Z","depth":0,"parameterNumber":3,"parameterNumberName":"V-component_of_WINDS"},"data":[0,0,0,0,0,0,0,0,0,0,0,0,0,0,0,0,0,0,0,0,0,0,0,0,0,0,0,0,0,0,0,0,0,0,0,0,0,0,0,0,0,0,0,0,0,0,0,0,0,0,0,0,0,0,0,0,0,0,0.65,0.6501,0,0.6609,0.661,0.6611,0.6685,0.6685,0.6686,0.6686,0.6796,0.6799,0.6801,0,0,0,0,0,0,0,0,0,0,0,0,0,0.6356,0.6358,0.65,0.6501,0.6503,0.6609,0.661,0.6612,0.6685,0.6685,0.6686,0.6686,0.6796,0.6799,0.6801,0,0,0,0,0,0,0,0,0,0,0,0,0,0.6437,0.6359,0.65,0.6552,0.6558,0.6608,0.661,0.6612,0.6684,0.6685,0.6686,0.6687,0.6795,0.6798,0.6802,0.6809,0,0,0.6813,0.6815,0,0,0,0,0,0,0,0,0.6432,0.6442,0.6543,0.6548,0.6555,0.6634,0.66,0.6678,0.6684,0.6636,0.6686,0.6687,0.6742,0.675,0.6768,0.6814,0.6819,0.6813,0.6816,0.6817,0.6818,0,0,0,0,0,0,0,0.6427,0.6438,0.6543,0.6544,0.6552,0.657,0.6582,0.6615,0.6683,0.664,0.6646,0.6658,0.6745,0.6765,0.6772,0.6821,0.6813,0.6817,0.6819,0.682,0.6881,0.6881,0,0,0,0,0,0,0.6413,0.6433,0.654,0.6546,0.6494,0.6572,0.6586,0.6608,0.6683,0.6695,0.6657,0.6661,0.6758,0.6767,0.6776,0.6791,0.6817,0.6821,0.6823,0.6882,0.6881,0.6881,0,0,0,0,0,0,0.6409,0.6422,0.6535,0.6491,0.6507,0.6574,0.6598,0.661,0.6629,0.6696,0.6708,0.6665,0.6759,0.6771,0.6801,0.6796,0.6822,0.6826,0.6883,0.6882,0.6881,0.6821,0,0,0,0,0,0,0.6405,0.642,0.6423,0.6491,0.6509,0.6558,0.6597,0.6611,0.6636,0.6642,0.6706,0.6718,0.6761,0.6795,0.6805,0.6802,0.6829,0.6883,0.6882,0.6881,0.6824,0.6818,0.6813,0,0,0,0,0,0.6399,0.6401,0.6423,0.6435,0.6514,0.6558,0.6568,0.6618,0.6635,0.6639,0.6682,0.6715,0.6795,0.6798,0.6809,0.6807,0.6884,0.6883,0.6881,0.6826,0.6819,0.6814,0,0,0,0,0,0,0.6329,0.641,0.6436,0.6459,0.6501,0.657,0.6576,0.6609,0.6647,0.6651,0.6711,0.6725,0.675,0.6781,0.6783,0.682,0.6844,0.6845,0.6798,0.6792,0.6787,0.6779,0.6832,0,0,0,0,0,0.6316,0.6345,0.6414,0.6428,0.6448,0.6508,0.6529,0.6564,0.661,0.6628,0.6674,0.6717,0.6752,0.6774,0.681,0.6829,0.6845,0.6834,0.6828,0.6824,0.6824,0.6839,0.6835,0.6876,0.6876,0.6876,0,0,0.629,0.6338,0.6352,0.6415,0.6452,0.6481,0.6523,0.6551,0.6573,0.6632,0.6665,0.67,0.6752,0.6778,0.6791,0.6805,0.6816,0.6822,0.6818,0.6821,0.6837,0.6834,0.683,0.6876,0.6876,0.6876,0,0,0.6257,0.6296,0.6313,0.6349,0.6405,0.6446,0.645,0.6515,0.6541,0.6575,0.6621,0.6648,0.6707,0.6743,0.6769,0.6754,0.6787,0.6764,0.6737,0.6751,0.6748,0.6745,0.6742,0.6739,0.6764,0.6764,0.6763,0,0.6217,0.6263,0.6317,0.6343,0.6371,0.6427,0.6446,0.6478,0.6543,0.6561,0.6575,0.6653,0.6691,0.6728,0.6724,0.6743,0.6751,0.6756,0.6744,0.6742,0.674,0.6738,0.6736,0.6761,0.6761,0.6761,0.6761,0,0.6212,0.6243,0.625,0.6312,0.634,0.6362,0.6421,0.6443,0.6476,0.6516,0.6551,0.66,0.6648,0.6659,0.6691,0.6701,0.6708,0.6733,0.6758,0.6733,0.6731,0.673,0.6756,0.6757,0.6758,0.6759,0,0,0.6136,0.623,0.6232,0.6262,0.6329,0.6355,0.638,0.6429,0.6447,0.649,0.6514,0.6564,0.6588,0.6618,0.6655,0.6667,0.6655,0.6691,0.6693,0.6684,0.6671,0.6653,0.665,0.6677,0.6677,0.6677,0.6667,0,0.6114,0.6163,0.6214,0.6245,0.6276,0.6332,0.6355,0.6399,0.6437,0.6469,0.6511,0.6546,0.6574,0.6593,0.6608,0.6653,0.6653,0.6654,0.6701,0.6702,0.6686,0.6649,0.6629,0.6617,0.6667,0.6667,0.6666,0,0.6094,0.6137,0.6171,0.6239,0.6253,0.6273,0.6323,0.6352,0.6404,0.6432,0.6466,0.6506,0.6538,0.656,0.6605,0.6604,0.6627,0.6652,0.6653,0.6659,0.6683,0.6656,0.6615,0.6613,0.6666,0.6666,0.6666,0,0.6037,0.6103,0.6133,0.6157,0.6236,0.6248,0.6282,0.6335,0.6362,0.6405,0.6424,0.647,0.6495,0.6531,0.6583,0.6594,0.6623,0.6649,0.6647,0.6646,0.6651,0.665,0.6613,0.6664,0.6664,0.6664,0.6664,0,0.6008,0.6027,0.6109,0.6127,0.6151,0.6211,0.6233,0.6272,0.6319,0.6347,0.6397,0.6422,0.649,0.6523,0.6564,0.6596,0.6607,0.663,0.6641,0.6626,0.6623,0.6642,0.6644,0.6663,0.6663,0.6663,0.6663,0,0.5948,0.6003,0.604,0.6112,0.6131,0.6146,0.6208,0.6229,0.6271,0.6306,0.6318,0.6384,0.6426,0.6482,0.6541,0.6569,0.6596,0.6613,0.6579,0.6585,0.6581,0.6581,0.6556,0.6557,0.6605,0.6604,0.6604,0,0.5925,0.5942,0.6017,0.604,0.6072,0.6107,0.6136,0.6196,0.6223,0.6286,0.6299,0.6346,0.6386,0.6451,0.6505,0.6551,0.657,0.6558,0.6577,0.6562,0.6571,0.657,0.6573,0.6553,0.6552,0.6551,0.6551,0,0.5881,0.5908,0.5947,0.5996,0.6029,0.607,0.6114,0.6129,0.6199,0.6227,0.6272,0.6303,0.6365,0.6411,0.6465,0.6501,0.6538,0.6545,0.6547,0.6532,0.6512,0.6525,0.6567,0.6545,0.6545,0.6546,0.6546,0.6546,0.584,0.5858,0.5915,0.5957,0.5997,0.6037,0.6061,0.6107,0.6146,0.6201,0.6235,0.6278,0.6333,0.641,0.6444,0.648,0.6494,0.6496,0.6498,0.6497,0.6493,0.6506,0.6489,0.649,0.649,0.649,0.649,0,0.5799,0.5839,0.5877,0.5938,0.5972,0.6005,0.6056,0.6082,0.612,0.6168,0.6208,0.626,0.6306,0.6364,0.6414,0.6432,0.645,0.6443,0.6443,0.6451,0.6477,0.6471,0.6428,0.6428,0.6428,0.6428,0.6428,0.6428,0.5782,0.5815,0.585,0.5905,0.5945,0.5988,0.6015,0.6053,0.6092,0.6149,0.6188,0.6226,0.6279,0.6334,0.6378,0.6394,0.6411,0.6398,0.642,0.6443,0.6449,0.6454,0.6448,0.6401,0.6401,0.6391,0.6391,0.6391]}]]